contact:dominique.lefevre@mio.osupytheas.fr, maurice.libes@osupytheas.fr, didier.mallarino@osupytheas.fr
Project:EMSO http://www.emso-fr.org/EMSO-France
Depth: 2436.0 m
Title:EMSO Ligure Ouest : Data MII capteur MICROCAT
DateTime_Computer,Latitude,Longitude,Temperature,Conductivity,Pressure,DateTime_Instrument
DateTime_Computer,Latitude,Longitude,degC,S m-1,dbar,DateTime_Instrument
2023-02-08T00:00:40Z,42.805,6.029,13.3081,4.60124,2470.661,2023-2-08T02:03:00Z
2023-02-08T00:03:43Z,42.805,6.029,13.3071,4.60119,2470.6,2023-2-08T02:06:03Z
2023-02-08T00:06:46Z,42.805,6.029,13.3080,4.60151,2470.577,2023-2-08T02:09:06Z
2023-02-08T00:09:49Z,42.805,6.029,13.3070,4.60135,2470.614,2023-2-08T02:12:09Z
2023-02-08T00:12:52Z,42.805,6.029,13.3087,4.60125,2470.591,2023-2-08T02:15:12Z
2023-02-08T00:15:56Z,42.805,6.029,13.3084,4.60123,2470.614,2023-2-08T02:18:15Z
2023-02-08T00:18:59Z,42.805,6.029,13.3058,4.60140,2470.6,2023-2-08T02:21:18Z
2023-02-08T00:22:02Z,42.805,6.029,13.3048,4.60120,2470.614,2023-2-08T02:24:21Z
2023-02-08T00:25:05Z,42.805,6.029,13.3062,4.60118,2470.614,2023-2-08T02:27:24Z
2023-02-08T00:28:08Z,42.805,6.029,13.3064,4.60141,2470.6,2023-2-08T02:30:28Z
2023-02-08T00:31:11Z,42.805,6.029,13.3067,4.60134,2470.637,2023-2-08T02:33:31Z
2023-02-08T00:34:14Z,42.805,6.029,13.3062,4.60142,2470.591,2023-2-08T02:36:34Z
2023-02-08T00:37:17Z,42.805,6.029,13.3056,4.60125,2470.6,2023-2-08T02:39:37Z
2023-02-08T00:40:20Z,42.805,6.029,13.3065,4.60161,2470.591,2023-2-08T02:42:40Z
2023-02-08T00:43:23Z,42.805,6.029,13.3069,4.60124,2470.614,2023-2-08T02:45:43Z
2023-02-08T00:46:26Z,42.805,6.029,13.3074,4.60127,2470.614,2023-2-08T02:48:46Z
2023-02-08T00:49:29Z,42.805,6.029,13.3055,4.60151,2470.624,2023-2-08T02:51:49Z
2023-02-08T00:52:32Z,42.805,6.029,13.3050,4.60176,2470.637,2023-2-08T02:54:52Z
2023-02-08T00:55:35Z,42.805,6.029,13.3054,4.60174,2470.614,2023-2-08T02:57:55Z
2023-02-08T00:58:39Z,42.805,6.029,13.3071,4.60130,2470.577,2023-2-08T03:00:58Z
2023-02-08T01:01:42Z,42.805,6.029,13.3078,4.60131,2470.614,2023-2-08T03:04:01Z
2023-02-08T01:04:45Z,42.805,6.029,13.3046,4.60155,2470.614,2023-2-08T03:07:04Z
2023-02-08T01:07:48Z,42.805,6.029,13.3072,4.60140,2470.577,2023-2-08T03:10:08Z
2023-02-08T01:10:51Z,42.805,6.029,13.3066,4.60117,2470.577,2023-2-08T03:13:11Z
2023-02-08T01:13:54Z,42.805,6.029,13.3061,4.60135,2470.577,2023-2-08T03:16:14Z
2023-02-08T01:16:57Z,42.805,6.029,13.3078,4.60146,2470.591,2023-2-08T03:19:17Z
2023-02-08T01:20:00Z,42.805,6.029,13.3071,4.60144,2470.6,2023-2-08T03:22:20Z
2023-02-08T01:23:03Z,42.805,6.029,13.3050,4.60162,2470.577,2023-2-08T03:25:23Z
2023-02-08T01:26:06Z,42.805,6.029,13.3057,4.60155,2470.553,2023-2-08T03:28:26Z
2023-02-08T01:29:09Z,42.805,6.029,13.3060,4.60137,2470.614,2023-2-08T03:31:29Z
2023-02-08T01:32:12Z,42.805,6.029,13.3070,4.60156,2470.6,2023-2-08T03:34:32Z
2023-02-08T01:35:15Z,42.805,6.029,13.3065,4.60129,2470.577,2023-2-08T03:37:35Z
2023-02-08T01:38:19Z,42.805,6.029,13.3063,4.60129,2470.577,2023-2-08T03:40:38Z
2023-02-08T01:41:22Z,42.805,6.029,13.3046,4.60130,2470.591,2023-2-08T03:43:41Z
2023-02-08T01:44:25Z,42.805,6.029,13.3075,4.60152,2470.591,2023-2-08T03:46:44Z
2023-02-08T01:47:28Z,42.805,6.029,13.3064,4.60166,2470.6,2023-2-08T03:49:48Z
2023-02-08T01:50:31Z,42.805,6.029,13.3054,4.60168,2470.567,2023-2-08T03:52:51Z
2023-02-08T01:53:34Z,42.805,6.029,13.3064,4.60203,2470.553,2023-2-08T03:55:54Z
2023-02-08T01:56:37Z,42.805,6.029,13.3051,4.60178,2470.553,2023-2-08T03:58:57Z
2023-02-08T01:59:40Z,42.805,6.029,13.3077,4.60178,2470.577,2023-2-08T04:02:00Z
2023-02-08T02:02:43Z,42.805,6.029,13.3053,4.60175,2470.577,2023-2-08T04:05:03Z
2023-02-08T02:05:46Z,42.805,6.029,13.3056,4.60184,2470.553,2023-2-08T04:08:06Z
2023-02-08T02:08:49Z,42.805,6.029,13.3063,4.60176,2470.553,2023-2-08T04:11:09Z
2023-02-08T02:11:52Z,42.805,6.029,13.3070,4.60145,2470.591,2023-2-08T04:14:12Z
2023-02-08T02:14:55Z,42.805,6.029,13.3073,4.60134,2470.6,2023-2-08T04:17:15Z
2023-02-08T02:17:59Z,42.805,6.029,13.3087,4.60141,2470.577,2023-2-08T04:20:18Z
2023-02-08T02:21:02Z,42.805,6.029,13.3070,4.60132,2470.539,2023-2-08T04:23:21Z
2023-02-08T02:24:05Z,42.805,6.029,13.3061,4.60135,2470.6,2023-2-08T04:26:24Z
2023-02-08T02:27:08Z,42.805,6.029,13.3062,4.60148,2470.567,2023-2-08T04:29:28Z
2023-02-08T02:30:11Z,42.805,6.029,13.3065,4.60142,2470.577,2023-2-08T04:32:31Z
2023-02-08T02:33:14Z,42.805,6.029,13.3061,4.60172,2470.591,2023-2-08T04:35:34Z
2023-02-08T02:36:17Z,42.805,6.029,13.3063,4.60160,2470.567,2023-2-08T04:38:37Z
2023-02-08T02:39:20Z,42.805,6.029,13.3058,4.60140,2470.591,2023-2-08T04:41:40Z
2023-02-08T02:42:23Z,42.805,6.029,13.3074,4.60157,2470.553,2023-2-08T04:44:43Z
2023-02-08T02:45:26Z,42.805,6.029,13.3058,4.60161,2470.577,2023-2-08T04:47:46Z
2023-02-08T02:48:29Z,42.805,6.029,13.3058,4.60141,2470.553,2023-2-08T04:50:49Z
2023-02-08T02:51:32Z,42.805,6.029,13.3056,4.60115,2470.553,2023-2-08T04:53:52Z
2023-02-08T02:54:35Z,42.805,6.029,13.3056,4.60120,2470.591,2023-2-08T04:56:55Z
2023-02-08T02:57:39Z,42.805,6.029,13.3048,4.60109,2470.553,2023-2-08T04:59:58Z
2023-02-08T03:00:42Z,42.805,6.029,13.3059,4.60132,2470.577,2023-2-08T05:03:01Z
2023-02-08T03:03:45Z,42.805,6.029,13.3053,4.60134,2470.553,2023-2-08T05:06:05Z
2023-02-08T03:06:48Z,42.805,6.029,13.3038,4.60129,2470.553,2023-2-08T05:09:08Z
2023-02-08T03:09:51Z,42.805,6.029,13.3043,4.60130,2470.567,2023-2-08T05:12:11Z
2023-02-08T03:12:54Z,42.805,6.029,13.3054,4.60133,2470.577,2023-2-08T05:15:14Z
2023-02-08T03:15:57Z,42.805,6.029,13.3047,4.60134,2470.591,2023-2-08T05:18:17Z
2023-02-08T03:19:00Z,42.805,6.029,13.3043,4.60151,2470.553,2023-2-08T05:21:20Z
2023-02-08T03:22:03Z,42.805,6.029,13.3041,4.60140,2470.591,2023-2-08T05:24:23Z
2023-02-08T03:25:06Z,42.805,6.029,13.3053,4.60137,2470.577,2023-2-08T05:27:26Z
2023-02-08T03:28:09Z,42.805,6.029,13.3046,4.60135,2470.577,2023-2-08T05:30:29Z
2023-02-08T03:31:12Z,42.805,6.029,13.3041,4.60122,2470.6,2023-2-08T05:33:32Z
2023-02-08T03:34:15Z,42.805,6.029,13.3041,4.60147,2470.577,2023-2-08T05:36:35Z
2023-02-08T03:37:18Z,42.805,6.029,13.3047,4.60137,2470.563,2023-2-08T05:39:38Z
2023-02-08T03:40:22Z,42.805,6.029,13.3057,4.60124,2470.577,2023-2-08T05:42:41Z
2023-02-08T03:43:25Z,42.805,6.029,13.3037,4.60127,2470.577,2023-2-08T05:45:44Z
2023-02-08T03:46:28Z,42.805,6.029,13.3048,4.60128,2470.553,2023-2-08T05:48:48Z
2023-02-08T03:49:31Z,42.805,6.029,13.3043,4.60133,2470.577,2023-2-08T05:51:51Z
2023-02-08T03:52:34Z,42.805,6.029,13.3049,4.60135,2470.577,2023-2-08T05:54:54Z
2023-02-08T03:55:37Z,42.805,6.029,13.3047,4.60116,2470.553,2023-2-08T05:57:57Z
2023-02-08T03:58:40Z,42.805,6.029,13.3039,4.60125,2470.577,2023-2-08T06:01:00Z
2023-02-08T04:01:43Z,42.805,6.029,13.3049,4.60161,2470.6,2023-2-08T06:04:03Z
2023-02-08T04:04:46Z,42.805,6.029,13.3032,4.60134,2470.6,2023-2-08T06:07:06Z
2023-02-08T04:07:49Z,42.805,6.029,13.3041,4.60139,2470.614,2023-2-08T06:10:09Z
2023-02-08T04:10:52Z,42.805,6.029,13.3051,4.60133,2470.614,2023-2-08T06:13:12Z
2023-02-08T04:13:55Z,42.805,6.029,13.3040,4.60118,2470.577,2023-2-08T06:16:15Z
2023-02-08T04:16:58Z,42.805,6.029,13.3039,4.60128,2470.577,2023-2-08T06:19:18Z
2023-02-08T04:20:02Z,42.805,6.029,13.3039,4.60122,2470.591,2023-2-08T06:22:21Z
2023-02-08T04:23:05Z,42.805,6.029,13.3035,4.60117,2470.577,2023-2-08T06:25:24Z
2023-02-08T04:26:08Z,42.805,6.029,13.3046,4.60121,2470.6,2023-2-08T06:28:27Z
2023-02-08T04:29:11Z,42.805,6.029,13.3043,4.60140,2470.637,2023-2-08T06:31:31Z
2023-02-08T04:32:14Z,42.805,6.029,13.3042,4.60125,2470.6,2023-2-08T06:34:34Z
2023-02-08T04:35:17Z,42.805,6.029,13.3038,4.60128,2470.6,2023-2-08T06:37:37Z
2023-02-08T04:38:20Z,42.805,6.029,13.3042,4.60136,2470.637,2023-2-08T06:40:40Z
2023-02-08T04:41:23Z,42.805,6.029,13.3042,4.60146,2470.6,2023-2-08T06:43:43Z
2023-02-08T04:44:26Z,42.805,6.029,13.3034,4.60120,2470.614,2023-2-08T06:46:46Z
2023-02-08T04:47:29Z,42.805,6.029,13.3041,4.60129,2470.614,2023-2-08T06:49:49Z
2023-02-08T04:50:32Z,42.805,6.029,13.3044,4.60117,2470.6,2023-2-08T06:52:52Z
2023-02-08T04:53:35Z,42.805,6.029,13.3036,4.60109,2470.624,2023-2-08T06:55:55Z
2023-02-08T04:56:38Z,42.805,6.029,13.3037,4.60115,2470.6,2023-2-08T06:58:58Z
2023-02-08T04:59:41Z,42.805,6.029,13.3038,4.60115,2470.614,2023-2-08T07:02:01Z
2023-02-08T05:02:45Z,42.805,6.029,13.3034,4.60129,2470.6,2023-2-08T07:05:04Z
2023-02-08T05:05:48Z,42.805,6.029,13.3042,4.60119,2470.661,2023-2-08T07:08:08Z
2023-02-08T05:08:51Z,42.805,6.029,13.3041,4.60117,2470.637,2023-2-08T07:11:11Z
2023-02-08T05:11:54Z,42.805,6.029,13.3038,4.60121,2470.646,2023-2-08T07:14:14Z
2023-02-08T05:14:57Z,42.805,6.029,13.3042,4.60132,2470.637,2023-2-08T07:17:17Z
2023-02-08T05:18:00Z,42.805,6.029,13.3031,4.60126,2470.646,2023-2-08T07:20:20Z
2023-02-08T05:21:03Z,42.805,6.029,13.3033,4.60101,2470.637,2023-2-08T07:23:23Z
2023-02-08T05:24:06Z,42.805,6.029,13.3039,4.60101,2470.624,2023-2-08T07:26:26Z
2023-02-08T05:27:09Z,42.805,6.029,13.3036,4.60116,2470.646,2023-2-08T07:29:29Z
2023-02-08T05:30:12Z,42.805,6.029,13.3041,4.60119,2470.661,2023-2-08T07:32:32Z
2023-02-08T05:33:15Z,42.805,6.029,13.3043,4.60125,2470.67,2023-2-08T07:35:35Z
2023-02-08T05:36:18Z,42.805,6.029,13.3039,4.60107,2470.661,2023-2-08T07:38:38Z
2023-02-08T05:39:21Z,42.805,6.029,13.3040,4.60125,2470.646,2023-2-08T07:41:41Z
2023-02-08T05:42:24Z,42.805,6.029,13.3036,4.60107,2470.67,2023-2-08T07:44:44Z
2023-02-08T05:45:28Z,42.805,6.029,13.3035,4.60107,2470.67,2023-2-08T07:47:47Z
2023-02-08T05:48:31Z,42.805,6.029,13.3039,4.60122,2470.67,2023-2-08T07:50:51Z
2023-02-08T05:51:34Z,42.805,6.029,13.3038,4.60108,2470.67,2023-2-08T07:53:54Z
2023-02-08T05:54:37Z,42.805,6.029,13.3036,4.60101,2470.646,2023-2-08T07:56:57Z
2023-02-08T05:57:40Z,42.805,6.029,13.3034,4.60109,2470.67,2023-2-08T08:00:00Z
2023-02-08T06:00:43Z,42.805,6.029,13.3038,4.60114,2470.717,2023-2-08T08:03:03Z
2023-02-08T06:03:46Z,42.805,6.029,13.3041,4.60125,2470.707,2023-2-08T08:06:06Z
2023-02-08T06:06:49Z,42.805,6.029,13.3043,4.60118,2470.684,2023-2-08T08:09:09Z
2023-02-08T06:09:52Z,42.805,6.029,13.3034,4.60115,2470.73,2023-2-08T08:12:12Z
2023-02-08T06:12:55Z,42.805,6.029,13.3039,4.60120,2470.693,2023-2-08T08:15:15Z
2023-02-08T06:15:58Z,42.805,6.029,13.3034,4.60104,2470.73,2023-2-08T08:18:18Z
2023-02-08T06:19:01Z,42.805,6.029,13.3035,4.60128,2470.693,2023-2-08T08:21:21Z
2023-02-08T06:22:04Z,42.805,6.029,13.3034,4.60103,2470.73,2023-2-08T08:24:24Z
2023-02-08T06:25:07Z,42.805,6.029,13.3043,4.60106,2470.707,2023-2-08T08:27:27Z
2023-02-08T06:28:11Z,42.805,6.029,13.3036,4.60119,2470.74,2023-2-08T08:30:30Z
2023-02-08T06:31:14Z,42.805,6.029,13.3035,4.60107,2470.693,2023-2-08T08:33:34Z
2023-02-08T06:34:17Z,42.805,6.029,13.3031,4.60107,2470.707,2023-2-08T08:36:37Z
2023-02-08T06:37:20Z,42.805,6.029,13.3039,4.60132,2470.73,2023-2-08T08:39:40Z
2023-02-08T06:40:23Z,42.805,6.029,13.3034,4.60132,2470.717,2023-2-08T08:42:43Z
2023-02-08T06:43:26Z,42.805,6.029,13.3036,4.60104,2470.73,2023-2-08T08:45:46Z
2023-02-08T06:46:29Z,42.805,6.029,13.3041,4.60132,2470.74,2023-2-08T08:48:49Z
2023-02-08T06:49:32Z,42.805,6.029,13.3030,4.60117,2470.754,2023-2-08T08:51:52Z
2023-02-08T06:52:35Z,42.805,6.029,13.3047,4.60134,2470.754,2023-2-08T08:54:55Z
2023-02-08T06:55:38Z,42.805,6.029,13.3048,4.60121,2470.73,2023-2-08T08:57:58Z
2023-02-08T06:58:41Z,42.805,6.029,13.3041,4.60142,2470.754,2023-2-08T09:01:01Z
2023-02-08T07:01:44Z,42.805,6.029,13.3043,4.60124,2470.787,2023-2-08T09:04:04Z
2023-02-08T07:04:48Z,42.805,6.029,13.3041,4.60134,2470.754,2023-2-08T09:07:07Z
2023-02-08T07:07:51Z,42.805,6.029,13.3038,4.60115,2470.763,2023-2-08T09:10:11Z
2023-02-08T07:10:54Z,42.805,6.029,13.3029,4.60101,2470.74,2023-2-08T09:13:14Z
2023-02-08T07:13:57Z,42.805,6.029,13.3043,4.60105,2470.777,2023-2-08T09:16:17Z
2023-02-08T07:17:00Z,42.805,6.029,13.3035,4.60119,2470.8,2023-2-08T09:19:20Z
2023-02-08T07:20:03Z,42.805,6.029,13.3040,4.60135,2470.763,2023-2-08T09:22:23Z
2023-02-08T07:23:06Z,42.805,6.029,13.3049,4.60143,2470.787,2023-2-08T09:25:26Z
2023-02-08T07:26:09Z,42.805,6.029,13.3029,4.60124,2470.763,2023-2-08T09:28:29Z
2023-02-08T07:29:12Z,42.805,6.029,13.3029,4.60116,2470.787,2023-2-08T09:31:32Z
2023-02-08T07:32:15Z,42.805,6.029,13.3036,4.60109,2470.787,2023-2-08T09:34:35Z
2023-02-08T07:35:18Z,42.805,6.029,13.3036,4.60099,2470.8,2023-2-08T09:37:38Z
2023-02-08T07:38:21Z,42.805,6.029,13.3034,4.60099,2470.81,2023-2-08T09:40:41Z
2023-02-08T07:41:24Z,42.805,6.029,13.3029,4.60127,2470.787,2023-2-08T09:43:44Z
2023-02-08T07:44:27Z,42.805,6.029,13.3044,4.60107,2470.787,2023-2-08T09:46:47Z
2023-02-08T07:47:31Z,42.805,6.029,13.3035,4.60117,2470.787,2023-2-08T09:49:50Z
2023-02-08T07:50:34Z,42.805,6.029,13.3033,4.60111,2470.824,2023-2-08T09:52:54Z
2023-02-08T07:53:37Z,42.805,6.029,13.3032,4.60135,2470.81,2023-2-08T09:55:57Z
2023-02-08T07:56:40Z,42.805,6.029,13.3034,4.60097,2470.787,2023-2-08T09:59:00Z
2023-02-08T07:59:43Z,42.805,6.029,13.3038,4.60119,2470.8,2023-2-08T10:02:03Z
2023-02-08T08:02:46Z,42.805,6.029,13.3053,4.60107,2470.824,2023-2-08T10:05:06Z
2023-02-08T08:05:49Z,42.805,6.029,13.3035,4.60112,2470.8,2023-2-08T10:08:09Z
2023-02-08T08:08:52Z,42.805,6.029,13.3039,4.60131,2470.8,2023-2-08T10:11:12Z
2023-02-08T08:11:55Z,42.805,6.029,13.3038,4.60125,2470.833,2023-2-08T10:14:15Z
2023-02-08T08:14:58Z,42.805,6.029,13.3040,4.60114,2470.787,2023-2-08T10:17:18Z
2023-02-08T08:18:01Z,42.805,6.029,13.3039,4.60107,2470.81,2023-2-08T10:20:21Z
2023-02-08T08:21:04Z,42.805,6.029,13.3041,4.60115,2470.81,2023-2-08T10:23:24Z
2023-02-08T08:24:07Z,42.805,6.029,13.3036,4.60133,2470.833,2023-2-08T10:26:27Z
2023-02-08T08:27:11Z,42.805,6.029,13.3036,4.60110,2470.833,2023-2-08T10:29:30Z
2023-02-08T08:30:14Z,42.805,6.029,13.3033,4.60126,2470.833,2023-2-08T10:32:34Z
2023-02-08T08:33:17Z,42.805,6.029,13.3036,4.60106,2470.833,2023-2-08T10:35:37Z
2023-02-08T08:36:20Z,42.805,6.029,13.3033,4.60099,2470.824,2023-2-08T10:38:40Z
2023-02-08T08:39:23Z,42.805,6.029,13.3031,4.60104,2470.824,2023-2-08T10:41:43Z
2023-02-08T08:42:26Z,42.805,6.029,13.3044,4.60132,2470.857,2023-2-08T10:44:46Z
2023-02-08T08:45:29Z,42.805,6.029,13.3051,4.60144,2470.824,2023-2-08T10:47:49Z
2023-02-08T08:48:32Z,42.805,6.029,13.3051,4.60156,2470.833,2023-2-08T10:50:52Z
2023-02-08T08:51:35Z,42.805,6.029,13.3041,4.60141,2470.824,2023-2-08T10:53:55Z
2023-02-08T08:54:38Z,42.805,6.029,13.3048,4.60142,2470.81,2023-2-08T10:56:58Z
2023-02-08T08:57:41Z,42.805,6.029,13.3040,4.60120,2470.847,2023-2-08T11:00:01Z
2023-02-08T09:00:44Z,42.805,6.029,13.3043,4.60122,2470.824,2023-2-08T11:03:04Z
2023-02-08T09:03:48Z,42.805,6.029,13.3038,4.60147,2470.81,2023-2-08T11:06:07Z
2023-02-08T09:06:51Z,42.805,6.029,13.3035,4.60142,2470.847,2023-2-08T11:09:11Z
2023-02-08T09:09:54Z,42.805,6.029,13.3038,4.60136,2470.824,2023-2-08T11:12:14Z
2023-02-08T09:12:57Z,42.805,6.029,13.3039,4.60137,2470.847,2023-2-08T11:15:17Z
2023-02-08T09:16:00Z,42.805,6.029,13.3032,4.60132,2470.833,2023-2-08T11:18:20Z
2023-02-08T09:19:03Z,42.805,6.029,13.3054,4.60145,2470.847,2023-2-08T11:21:23Z
2023-02-08T09:22:06Z,42.805,6.029,13.3043,4.60105,2470.81,2023-2-08T11:24:26Z
2023-02-08T09:25:09Z,42.805,6.029,13.3037,4.60155,2470.847,2023-2-08T11:27:29Z
2023-02-08T09:28:12Z,42.805,6.029,13.3039,4.60119,2470.833,2023-2-08T11:30:32Z
2023-02-08T09:31:15Z,42.805,6.029,13.3048,4.60162,2470.833,2023-2-08T11:33:35Z
2023-02-08T09:34:18Z,42.805,6.029,13.3036,4.60162,2470.81,2023-2-08T11:36:38Z
2023-02-08T09:37:21Z,42.805,6.029,13.3036,4.60129,2470.787,2023-2-08T11:39:41Z
2023-02-08T09:40:24Z,42.805,6.029,13.3037,4.60141,2470.833,2023-2-08T11:42:44Z
2023-02-08T09:43:28Z,42.805,6.029,13.3039,4.60137,2470.81,2023-2-08T11:45:48Z
2023-02-08T09:46:31Z,42.805,6.029,13.3045,4.60148,2470.81,2023-2-08T11:48:51Z
2023-02-08T09:49:34Z,42.805,6.029,13.3049,4.60142,2470.847,2023-2-08T11:51:54Z
2023-02-08T09:52:37Z,42.805,6.029,13.3036,4.60131,2470.81,2023-2-08T11:54:57Z
2023-02-08T09:55:40Z,42.805,6.029,13.3046,4.60173,2470.81,2023-2-08T11:58:00Z
2023-02-08T09:58:43Z,42.805,6.029,13.3039,4.60138,2470.787,2023-2-08T12:01:03Z
2023-02-08T10:01:46Z,42.805,6.029,13.3036,4.60129,2470.824,2023-2-08T12:04:06Z
2023-02-08T10:04:49Z,42.805,6.029,13.3034,4.60125,2470.8,2023-2-08T12:07:09Z
2023-02-08T10:07:52Z,42.805,6.029,13.3039,4.60144,2470.8,2023-2-08T12:10:12Z
2023-02-08T10:10:55Z,42.805,6.029,13.3052,4.60176,2470.81,2023-2-08T12:13:15Z
2023-02-08T10:13:58Z,42.805,6.029,13.3036,4.60143,2470.81,2023-2-08T12:16:18Z
2023-02-08T10:17:01Z,42.805,6.029,13.3048,4.60157,2470.81,2023-2-08T12:19:21Z
2023-02-08T10:20:05Z,42.805,6.029,13.3047,4.60133,2470.824,2023-2-08T12:22:24Z
2023-02-08T10:23:08Z,42.805,6.029,13.3043,4.60155,2470.824,2023-2-08T12:25:28Z
2023-02-08T10:26:11Z,42.805,6.029,13.3053,4.60125,2470.824,2023-2-08T12:28:31Z
2023-02-08T10:29:14Z,42.805,6.029,13.3058,4.60127,2470.824,2023-2-08T12:31:34Z
2023-02-08T10:32:17Z,42.805,6.029,13.3054,4.60129,2470.81,2023-2-08T12:34:37Z
2023-02-08T10:35:20Z,42.805,6.029,13.3044,4.60142,2470.8,2023-2-08T12:37:40Z
2023-02-08T10:38:23Z,42.805,6.029,13.3058,4.60141,2470.787,2023-2-08T12:40:43Z
2023-02-08T10:41:26Z,42.805,6.029,13.3056,4.60141,2470.81,2023-2-08T12:43:46Z
2023-02-08T10:44:29Z,42.805,6.029,13.3055,4.60146,2470.777,2023-2-08T12:46:49Z
2023-02-08T10:47:32Z,42.805,6.029,13.3054,4.60155,2470.81,2023-2-08T12:49:52Z
2023-02-08T10:50:35Z,42.805,6.029,13.3048,4.60144,2470.787,2023-2-08T12:52:55Z
2023-02-08T10:53:38Z,42.805,6.029,13.3057,4.60159,2470.824,2023-2-08T12:55:58Z
2023-02-08T10:56:41Z,42.805,6.029,13.3070,4.60151,2470.787,2023-2-08T12:59:01Z
2023-02-08T10:59:45Z,42.805,6.029,13.3055,4.60145,2470.8,2023-2-08T13:02:05Z
2023-02-08T11:02:48Z,42.805,6.029,13.3043,4.60135,2470.763,2023-2-08T13:05:08Z
2023-02-08T11:05:51Z,42.805,6.029,13.3031,4.60116,2470.787,2023-2-08T13:08:11Z
2023-02-08T11:08:54Z,42.805,6.029,13.3035,4.60117,2470.8,2023-2-08T13:11:14Z
2023-02-08T11:11:57Z,42.805,6.029,13.3035,4.60115,2470.787,2023-2-08T13:14:17Z
2023-02-08T11:15:00Z,42.805,6.029,13.3039,4.60127,2470.763,2023-2-08T13:17:20Z
2023-02-08T11:18:03Z,42.805,6.029,13.3040,4.60140,2470.81,2023-2-08T13:20:23Z
2023-02-08T11:21:06Z,42.805,6.029,13.3044,4.60167,2470.787,2023-2-08T13:23:26Z
2023-02-08T11:24:09Z,42.805,6.029,13.3056,4.60130,2470.824,2023-2-08T13:26:29Z
2023-02-08T11:27:12Z,42.805,6.029,13.3046,4.60162,2470.763,2023-2-08T13:29:32Z
2023-02-08T11:30:15Z,42.805,6.029,13.3061,4.60128,2470.787,2023-2-08T13:32:35Z
2023-02-08T11:33:18Z,42.805,6.029,13.3036,4.60117,2470.777,2023-2-08T13:35:38Z
2023-02-08T11:36:22Z,42.805,6.029,13.3046,4.60113,2470.763,2023-2-08T13:38:42Z
2023-02-08T11:39:25Z,42.805,6.029,13.3041,4.60129,2470.754,2023-2-08T13:41:45Z
2023-02-08T11:42:28Z,42.805,6.029,13.3048,4.60137,2470.74,2023-2-08T13:44:48Z
2023-02-08T11:45:31Z,42.805,6.029,13.3043,4.60120,2470.777,2023-2-08T13:47:51Z
2023-02-08T11:48:34Z,42.805,6.029,13.3044,4.60138,2470.763,2023-2-08T13:50:54Z
2023-02-08T11:51:37Z,42.805,6.029,13.3046,4.60157,2470.8,2023-2-08T13:53:57Z
2023-02-08T11:54:40Z,42.805,6.029,13.3036,4.60150,2470.754,2023-2-08T13:57:00Z
2023-02-08T11:57:43Z,42.805,6.029,13.3045,4.60155,2470.74,2023-2-08T14:00:03Z
2023-02-08T12:00:46Z,42.805,6.029,13.3041,4.60155,2470.777,2023-2-08T14:03:06Z
2023-02-08T12:03:49Z,42.805,6.029,13.3037,4.60127,2470.717,2023-2-08T14:06:09Z
2023-02-08T12:06:52Z,42.805,6.029,13.3045,4.60114,2470.763,2023-2-08T14:09:12Z
2023-02-08T12:09:55Z,42.805,6.029,13.3042,4.60110,2470.754,2023-2-08T14:12:15Z
2023-02-08T12:12:58Z,42.805,6.029,13.3039,4.60135,2470.754,2023-2-08T14:15:18Z
2023-02-08T12:16:02Z,42.805,6.029,13.3046,4.60154,2470.703,2023-2-08T14:18:22Z
2023-02-08T12:19:05Z,42.805,6.029,13.3039,4.60143,2470.754,2023-2-08T14:21:25Z
2023-02-08T12:22:08Z,42.805,6.029,13.3041,4.60128,2470.74,2023-2-08T14:24:28Z
2023-02-08T12:25:11Z,42.805,6.029,13.3039,4.60121,2470.707,2023-2-08T14:27:31Z
2023-02-08T12:28:14Z,42.805,6.029,13.3037,4.60129,2470.754,2023-2-08T14:30:34Z
2023-02-08T12:31:17Z,42.805,6.029,13.3041,4.60138,2470.717,2023-2-08T14:33:37Z
2023-02-08T12:34:20Z,42.805,6.029,13.3034,4.60117,2470.717,2023-2-08T14:36:40Z
2023-02-08T12:37:23Z,42.805,6.029,13.3042,4.60144,2470.73,2023-2-08T14:39:43Z
2023-02-08T12:40:26Z,42.805,6.029,13.3056,4.60122,2470.717,2023-2-08T14:42:46Z
2023-02-08T12:43:29Z,42.805,6.029,13.3048,4.60140,2470.74,2023-2-08T14:45:49Z
2023-02-08T12:46:32Z,42.805,6.029,13.3055,4.60150,2470.73,2023-2-08T14:48:52Z
2023-02-08T12:49:35Z,42.805,6.029,13.3059,4.60147,2470.684,2023-2-08T14:51:55Z
2023-02-08T12:52:39Z,42.805,6.029,13.3053,4.60138,2470.717,2023-2-08T14:54:59Z
2023-02-08T12:55:42Z,42.805,6.029,13.3046,4.60148,2470.717,2023-2-08T14:58:02Z
2023-02-08T12:58:45Z,42.805,6.029,13.3051,4.60157,2470.717,2023-2-08T15:01:05Z
2023-02-08T13:01:48Z,42.805,6.029,13.3066,4.60145,2470.707,2023-2-08T15:04:08Z
2023-02-08T13:04:51Z,42.805,6.029,13.3037,4.60156,2470.707,2023-2-08T15:07:11Z
2023-02-08T13:07:54Z,42.805,6.029,13.3051,4.60147,2470.721,2023-2-08T15:10:14Z
2023-02-08T13:10:57Z,42.805,6.029,13.3048,4.60146,2470.707,2023-2-08T15:13:17Z
2023-02-08T13:14:00Z,42.805,6.029,13.3043,4.60129,2470.693,2023-2-08T15:16:20Z
2023-02-08T13:17:03Z,42.805,6.029,13.3040,4.60122,2470.693,2023-2-08T15:19:23Z
2023-02-08T13:20:06Z,42.805,6.029,13.3036,4.60143,2470.693,2023-2-08T15:22:26Z
2023-02-08T13:23:09Z,42.805,6.029,13.3035,4.60119,2470.707,2023-2-08T15:25:29Z
2023-02-08T13:26:12Z,42.805,6.029,13.3034,4.60154,2470.693,2023-2-08T15:28:32Z
2023-02-08T13:29:15Z,42.805,6.029,13.3041,4.60158,2470.707,2023-2-08T15:31:36Z
2023-02-08T13:32:19Z,42.805,6.029,13.3033,4.60142,2470.707,2023-2-08T15:34:39Z
2023-02-08T13:35:22Z,42.805,6.029,13.3044,4.60134,2470.693,2023-2-08T15:37:42Z
2023-02-08T13:38:25Z,42.805,6.029,13.3041,4.60142,2470.707,2023-2-08T15:40:45Z
2023-02-08T13:41:28Z,42.805,6.029,13.3036,4.60138,2470.693,2023-2-08T15:43:48Z
2023-02-08T13:44:31Z,42.805,6.029,13.3043,4.60133,2470.67,2023-2-08T15:46:51Z
2023-02-08T13:47:34Z,42.805,6.029,13.3046,4.60161,2470.707,2023-2-08T15:49:54Z
2023-02-08T13:50:37Z,42.805,6.029,13.3034,4.60144,2470.693,2023-2-08T15:52:57Z
2023-02-08T13:53:40Z,42.805,6.029,13.3048,4.60135,2470.693,2023-2-08T15:56:00Z
2023-02-08T13:56:43Z,42.805,6.029,13.3035,4.60122,2470.661,2023-2-08T15:59:03Z
2023-02-08T13:59:46Z,42.805,6.029,13.3053,4.60122,2470.684,2023-2-08T16:02:06Z
2023-02-08T14:02:49Z,42.805,6.029,13.3036,4.60144,2470.637,2023-2-08T16:05:09Z
2023-02-08T14:05:52Z,42.805,6.029,13.3034,4.60119,2470.67,2023-2-08T16:08:13Z
2023-02-08T14:08:55Z,42.805,6.029,13.3039,4.60127,2470.693,2023-2-08T16:11:16Z
2023-02-08T14:11:59Z,42.805,6.029,13.3031,4.60109,2470.661,2023-2-08T16:14:19Z
2023-02-08T14:15:02Z,42.805,6.029,13.3038,4.60132,2470.661,2023-2-08T16:17:22Z
2023-02-08T14:18:05Z,42.805,6.029,13.3044,4.60123,2470.67,2023-2-08T16:20:25Z
2023-02-08T14:21:08Z,42.805,6.029,13.3064,4.60132,2470.646,2023-2-08T16:23:28Z
2023-02-08T14:24:11Z,42.805,6.029,13.3036,4.60141,2470.661,2023-2-08T16:26:31Z
2023-02-08T14:27:14Z,42.805,6.029,13.3051,4.60148,2470.661,2023-2-08T16:29:34Z
2023-02-08T14:30:17Z,42.805,6.029,13.3043,4.60172,2470.646,2023-2-08T16:32:37Z
2023-02-08T14:33:20Z,42.805,6.029,13.3041,4.60175,2470.646,2023-2-08T16:35:40Z
2023-02-08T14:36:23Z,42.805,6.029,13.3036,4.60127,2470.684,2023-2-08T16:38:43Z
2023-02-08T14:39:26Z,42.805,6.029,13.3039,4.60128,2470.646,2023-2-08T16:41:46Z
2023-02-08T14:42:29Z,42.805,6.029,13.3041,4.60154,2470.637,2023-2-08T16:44:49Z
2023-02-08T14:45:32Z,42.805,6.029,13.3066,4.60178,2470.684,2023-2-08T16:47:53Z
2023-02-08T14:48:36Z,42.805,6.029,13.3043,4.60192,2470.661,2023-2-08T16:50:56Z
2023-02-08T14:51:39Z,42.805,6.029,13.3070,4.60120,2470.637,2023-2-08T16:53:59Z
2023-02-08T14:54:42Z,42.805,6.029,13.3048,4.60143,2470.684,2023-2-08T16:57:02Z
2023-02-08T14:57:45Z,42.805,6.029,13.3043,4.60140,2470.624,2023-2-08T17:00:05Z
2023-02-08T15:00:48Z,42.805,6.029,13.3061,4.60159,2470.67,2023-2-08T17:03:08Z
2023-02-08T15:03:51Z,42.805,6.029,13.3060,4.60127,2470.684,2023-2-08T17:06:11Z
2023-02-08T15:06:54Z,42.805,6.029,13.3053,4.60150,2470.646,2023-2-08T17:09:14Z
2023-02-08T15:09:57Z,42.805,6.029,13.3044,4.60167,2470.661,2023-2-08T17:12:17Z
2023-02-08T15:13:00Z,42.805,6.029,13.3043,4.60172,2470.684,2023-2-08T17:15:20Z